Location: Agadir Mansour Mhndou
(31.2424°N, 8.7730°W)
Time: 18:37:08
(UTC+00:00)

Cosmos 2227 Rocket - Pass Details

Date: 16 October 2021
Orbit: 839 x 845 km, 71.0° (Epoch: 08 December)

Event Time Altitude Azimuth Distance (km) Brightness Sun altitude
Rises 19:28:45 0° 329° (NNW) 3,404 5.8 -19.3°
Reaches altitude 10° 19:31:23 10° 320° (NW) 2,465 5.2 -19.8°
Maximum altitude 19:36:27 35° 257° (WSW) 1,331 3.8 -20.9°
Drops below altitude 10° 19:41:30 10° 192° (SSW) 2,450 4.7 -22.0°
Sets 19:44:07 0° 184° (S) 3,380 5.4 -22.6°
